Other Surface Observations
Issued by NWS

Home | Current Version | Previous Version | Text Only | Print | Product List | Glossary On
Versions: 1 2 3 4 5 6 7 8 9 10 11 12 13 14 15 16 17 18 19 20 21 22 23 24 25 26 27 28 29 30 31 32 33 34 35 36 37 38 39 40 41 42 43 44 45 46 47 48 49 50
000
SXUS52 KTAE 311018
OSOTAE
OSOTAE
North Florida/South Alabama/Southwest Georgia Weather Roundup
National Weather Service Tallahassee Florida
600 AM EDT SUN AUG 31 2014

Note: "fair" indicates few or no clouds below 12,000 feet with no
significant weather and/or obstructions to visibility.

!FLZ017-115-028-034-025-311100
...North Florida...

CITY           SKY/WX    TMP DP  RH WIND       PRES   REMARKS
TALLAHASSEE    LGT RAIN  75  72  90 SE6       30.12R
APALACHICOLA   MOCLDY    81  76  84 SE5       30.08S
PERRY          CLOUDY    72  72 100 CALM      30.13R
CROSS CITY       N/A     73  72  96 CALM      30.12R
HOMERVILLE     FAIR      75  72  88 CALM      30.14S
JACKSONVILLE   PTCLDY    73  72  96 CALM      30.12S
$$

!FLZ112-006-005-002-011-311100
...Florida Panhandle...

CITY           SKY/WX    TMP DP  RH WIND       PRES   REMARKS
MARIANNA       CLEAR     75  75 100 NE5       30.10S
BONIFAY        PTSUNNY   74  73  97 CALM      30.12R FOG
PANAMA CITY NW FAIR      77  74  90 E5        30.09R
TYNDALL AFB    PTCLDY    79  79 100 E8        30.10R
TYND DRONE APT NOT AVBL
DE FUNIAK SPR  FAIR      75  74  99 E3        30.10R FOG
EGLIN AFB      MOCLDY    81  78  88 CALM      30.07S
DESTIN         PTCLDY    84  78  82 SE7       30.07S HX  95
HURLBURT       PTCLDY    83  75  75 N2        30.06S HX  90
CRESTVIEW      FOG       74  73  97 CALM      30.10S VSB 1/2
PENSACOLA      PTCLDY    79  77  94 SE5       30.06S
$$

!ALZ063-066-311100
...South Alabama...

CITY           SKY/WX    TMP DP  RH WIND       PRES   REMARKS
DOTHAN         CLEAR     74  72  93 E6        30.15R
OZARK CAIRNS   PTCLDY    74  72  94 E6        30.11S
FT RUCKER HELI PTCLDY    72  70  93 CALM      30.10S
RUCKER HELI 3  FAIR      73  71  96 E1        30.13S
RUCKER HELI 2  FAIR      74  72  93 E5        30.11R
FLORALA APT    FOG       75  73  94 CALM      30.12R VSB 1/2
ANDALUSIA      CLOUDY    77  73  88 CALM      30.11R
TROY           PTCLDY    72  70  93 CALM      30.13R
EUFALA         FAIR      72  68  88 CALM      30.13R
MOBILE         PTCLDY    77  77 100 SE3       30.07S
$$

!GAZ120>161-311100
...Southwest and South Central Georgia...

CITY           SKY/WX    TMP DP  RH WIND       PRES   REMARKS
THOMASVILLE    RAIN      73  73 100 N6        30.14S
BAINBRIDGE     MOCLDY    79  77  94 NE5       30.12S
MOODY AFB      NOT AVBL
VALDOSTA       CLOUDY    72  71  97 CALM      30.13S
MOULTRIE       CLOUDY    72  72 100 N3        30.14S
BLAKELY        PTCLDY    75  73  94 CALM        N/A
ALBANY         CLOUDY    73  72  94 E3        30.16F
TIFTON         FAIR      73  72  95 NW3       30.14F
FITZGERALD     PTSUNNY   76  74  91 W3        30.18S
CORDELE        CLOUDY    79  73  81 SW7       30.16R
AMERICUS       FAIR      73  73 100 S5        30.17R
$$

!GMZ750-755-770-775-311100
...Coastal and Buoy Obs...

STATION/POSITION TIME  TEMP    WIND        PRES    VSBY  WAVE
                       AIR SEA DIR/SP/G                  HT/PER
                 (UTC) (F)     (DEG/KT/KT) (MB)    (MI)  (FT/S)
KEATON BEACH     1000   73      70/  7/  8 1020.1R
CEDAR KEY        1000   75      40/  5/  7 1020.3R
C TOWER          1000   83     150/  9/ 10 1018.9R
APALACHICOLA BUO 1000   84 86  120/ 10/ 12 1018.2F         3/ 6
PANAMA CITY BUOY 0921   85 86  140/  8/ 10 1017.9F         4/ 6
MOBILE BUOY      0900   84     150/ 12     1017.5
ORANGE BCH AL BU 1000   85 85  160/ 10/ 10 1017.6F         3/ 6
$$



USA.gov is the U.S. government's official web portal to all federal, state and local government web resources and services.